San Carlos, CA

2:12 AM PDT on August 24, 2017 (GMT -0700)
San Carlos

Weather History for KSQL - October, 2013

Change the Weather History Date:

Tuesday, October 22, 2013

  Actual Average Record
Temperature  
Mean Temperature 57 °F -  
Max Temperature 66 °F 72 °F 88 °F (1965)
Min Temperature 48 °F 48 °F 38 °F (1949)
Degree Days  
Heating Degree Days 8    
Growing Degree Days 7 (Base 50)    
Moisture  
Dew Point 49 °F    
Average Humidity 86    
Maximum Humidity 100    
Minimum Humidity 59    
Precipitation  
Precipitation 0.00 in - - ()
Sea Level Pressure  
Sea Level Pressure 30.00 in    
Wind  
Wind Speed 2 mph (NNW)    
Max Wind Speed 10 mph    
Max Gust Speed -    
Visibility 8 miles    
Events      
Averages and records for this station are not official NWS values.
T = Trace of Precipitation, MM = Missing Value Source: NWS Daily Summary

Daily Weather History Graph

Daily Weather History Graph

Search for Another Location

Airport or City:

Trip Planner

Search our weather history database for the weather conditions in past years. The results will help you decide how hot, cold, wet, or windy it might be!

Date:

Astronomy

Oct. 22, 2013 Rise Set
Actual Time 7:24 AM PDT 6:22 PM PDT
Civil Twilight 6:57 AM PDT 6:48 PM PDT
Nautical Twilight 6:27 AM PDT 7:19 PM PDT
Astronomical Twilight 5:56 AM PDT 7:49 PM PDT
Moon 9:10 PM PDT (10/22) 10:53 AM PDT (10/22)
Length of Visible Light 11h 51m
Length of Day
10h 57m
Waning Gibbous, 86% of the Moon is Illuminated
Oct 22
Waning Gibbous
Oct 26
Last Quarter
Nov 3
New
Nov 9
First Quarter
Nov 17
Full

Hourly Weather History & Observations

Time (PDT) Temp. Dew Point Humidity Pressure Visibility Wind Dir Wind Speed Gust Speed Precip Events Conditions
12:15 AM 51.8 °F 46.4 °F 82% 30.01 in 10.0 mi NW 3.5 mph - N/A   Clear
12:35 AM 50.0 °F 46.4 °F 87% 30.01 in 10.0 mi WNW 4.6 mph - N/A   Clear
12:55 AM 50.0 °F 46.4 °F 87% 30.01 in 10.0 mi WNW 3.5 mph - N/A   Clear
1:15 AM 50.0 °F 46.4 °F 87% 30.01 in 10.0 mi NW 3.5 mph - N/A   Clear
1:35 AM 50.0 °F 46.4 °F 87% 30.01 in 10.0 mi NW 4.6 mph - N/A   Clear
1:55 AM 50.0 °F 46.4 °F 87% 30.01 in 10.0 mi Calm Calm - N/A   Clear
2:15 AM 50.0 °F 46.4 °F 87% 30.01 in 10.0 mi Calm Calm - N/A   Clear
2:35 AM 50.0 °F 46.4 °F 87% 30.01 in 10.0 mi Calm Calm - N/A   Clear
2:55 AM 48.2 °F 46.4 °F 93% 30.01 in 10.0 mi Calm Calm - N/A   Clear
3:15 AM 48.2 °F 44.6 °F 87% 30.01 in 10.0 mi Calm Calm - N/A   Clear
3:35 AM 48.2 °F 44.6 °F 87% 30.01 in 10.0 mi Calm Calm - N/A   Clear
3:55 AM 48.2 °F 46.4 °F 93% 30.01 in 10.0 mi Calm Calm - N/A   Mostly Cloudy
4:15 AM 48.2 °F 46.4 °F 93% 30.01 in 10.0 mi WNW 3.5 mph - N/A   Overcast
4:35 AM 48.2 °F 46.4 °F 93% 30.01 in 10.0 mi WNW 3.5 mph - N/A   Overcast
4:55 AM 48.2 °F 46.4 °F 93% 30.01 in 10.0 mi WNW 3.5 mph - N/A   Overcast
5:15 AM 50.0 °F 46.4 °F 87% 30.01 in 10.0 mi Calm Calm - N/A   Overcast
5:35 AM 50.0 °F 48.2 °F 94% 30.01 in 8.0 mi Calm Calm - N/A   Overcast
5:55 AM 50.0 °F 48.2 °F 94% 30.02 in 5.0 mi Calm Calm - N/A   Overcast
6:15 AM 50.0 °F 48.2 °F 94% 30.02 in 4.0 mi Calm Calm - N/A   Overcast
6:35 AM 50.0 °F 50.0 °F 100% 30.02 in 3.0 mi Calm Calm - N/A   Overcast
6:55 AM 51.8 °F 50.0 °F 94% 30.02 in 3.0 mi ENE 3.5 mph - N/A   Overcast
7:49 AM 50.0 °F 50.0 °F 100% 30.03 in 2.5 mi SSE 3.5 mph - N/A   Overcast
8:57 AM 51.8 °F 50.0 °F 94% 30.04 in 2.0 mi Calm Calm - N/A   Overcast
9:29 AM 51.8 °F 50.0 °F 94% 30.04 in 2.5 mi Calm Calm - N/A   Overcast
9:50 AM 51.8 °F 50.0 °F 94% 30.04 in 2.5 mi Calm Calm - N/A   Overcast
10:26 AM 53.6 °F 50.0 °F 88% 30.04 in 2.5 mi Calm Calm - N/A   Overcast
10:48 AM 53.6 °F 50.0 °F 88% 30.03 in 2.5 mi NNE 3.5 mph - N/A   Overcast
11:24 AM 55.4 °F 51.8 °F 88% 30.03 in 3.0 mi NNE 3.5 mph - N/A   Haze
11:47 AM 57.2 °F 51.8 °F 82% 30.02 in 3.0 mi NNE 3.5 mph - N/A   Haze
12:47 PM 59.0 °F 53.6 °F 82% 30.00 in 3.0 mi NE 4.6 mph - N/A   Haze
1:47 PM 62.6 °F 55.4 °F 77% 29.97 in 4.0 mi NE 6.9 mph - N/A   Haze
2:47 PM 66.2 °F 53.6 °F 64% 29.95 in 5.0 mi North 8.1 mph - N/A   Haze
3:47 PM 64.4 °F 50.0 °F 59% 29.95 in 7.0 mi North 10.4 mph - N/A   Partly Cloudy
4:47 PM 64.4 °F 51.8 °F 64% 29.94 in 8.0 mi NNW 5.8 mph - N/A   Clear
6:53 PM 57.2 °F 50.0 °F 77% 29.94 in 10.0 mi North 3.5 mph - N/A   Clear
7:47 PM 55.4 °F 50.0 °F 82% 29.96 in 10.0 mi NNW 3.5 mph - N/A   Clear
8:47 PM 53.6 °F 48.2 °F 82% 29.97 in 10.0 mi NNW 4.6 mph - N/A   Clear
9:15 PM 53.6 °F 48.2 °F 82% 29.97 in 10.0 mi Calm Calm - N/A   Clear
9:35 PM 53.6 °F 48.2 °F 82% 29.98 in 10.0 mi North 3.5 mph - N/A   Clear
9:55 PM 53.6 °F 48.2 °F 82% 29.98 in 10.0 mi Calm Calm - N/A   Clear
10:15 PM 53.6 °F 48.2 °F 82% 29.98 in 10.0 mi Calm Calm - N/A   Clear
10:35 PM 51.8 °F 48.2 °F 88% 29.99 in 10.0 mi Calm Calm - N/A   Clear
10:55 PM 51.8 °F 48.2 °F 88% 29.99 in 10.0 mi Calm Calm - N/A   Clear
11:15 PM 51.8 °F 48.2 °F 88% 29.99 in 10.0 mi NW 3.5 mph - N/A   Clear
11:35 PM 51.8 °F 48.2 °F 88% 29.98 in 10.0 mi Calm Calm - N/A   Clear
11:55 PM 51.8 °F 48.2 °F 88% 29.98 in 10.0 mi Calm Calm - N/A   Clear